Weather History for LLET - December, 2012

Change the Weather History Date:

Wednesday, December 26, 2012

  Actual Average Record
Temperature  
Mean Temperature 64 °F -  
Max Temperature 73 °F 68 °F 78 °F (1996)
Min Temperature 54 °F 51 °F 41 °F (2006)
Degree Days  
Heating Degree Days 2    
Growing Degree Days 14 (Base 50)    
Moisture  
Dew Point 48 °F    
Average Humidity 53    
Maximum Humidity 77    
Minimum Humidity 23    
Precipitation  
Precipitation 0.00 in 0.01 in - ()
Sea Level Pressure  
Sea Level Pressure 30.22 in    
Wind  
Wind Speed 6 mph ()    
Max Wind Speed 17 mph    
Max Gust Speed -    
Visibility 7.7 miles    
Events      
Averages and records for this station are not official NWS values.
T = Trace of Precipitation, MM = Missing Value Source: Averaged Metar Reports

Daily Weather History Graph

Daily Weather History Graph

Search for Another Location

Airport or City:

Trip Planner

Search our weather history database for the weather conditions in past years. The results will help you decide how hot, cold, wet, or windy it might be!

Date:

Astronomy

Dec. 26, 2012 Rise Set
Actual Time 6:33 AM IST 4:48 PM IST
Civil Twilight 6:06 AM IST 5:14 PM IST
Nautical Twilight 5:37 AM IST 5:44 PM IST
Astronomical Twilight 5:08 AM IST 6:13 PM IST
Moon 3:23 PM IST (12/26) 4:41 AM IST (12/26)
Length of Visible Light 11h 07m
Length of Day
10h 15m
Waxing Gibbous, 96% of the Moon is Illuminated
Dec 26
Waxing Gibbous
Dec 28
Full
Jan 5
Last Quarter
Jan 11
New
Jan 19
First Quarter

Hourly Weather History & Observations

Time (IST) Temp. Dew Point Humidity Pressure Visibility Wind Dir Wind Speed Gust Speed Precip Events Conditions
2:00 AM 59 °F 49 °F 60% 30.23 in 12 mi NE 2.3 mph - -   Partly Cloudy
5:50 AM 55.4 °F 48.2 °F 77% 30.24 in - North 5.8 mph - N/A   Clear
6:50 AM 55.4 °F 48.2 °F 77% 30.24 in - North 5.8 mph - N/A   Clear
7:50 AM 57.2 °F 48.2 °F 72% 30.24 in - NE 3.5 mph - N/A   Clear
8:00 AM 58 °F 48 °F 61% 30.27 in - NE 3.5 mph - -  
8:50 AM 60.8 °F 50.0 °F 68% 30.27 in 5.0 mi NE 4.6 mph - N/A   Unknown
9:50 AM 64.4 °F 51.8 °F 64% 30.27 in - NNE 8.1 mph - N/A   Clear
10:50 AM 66.2 °F 51.8 °F 60% 30.27 in - NE 6.9 mph - N/A   Clear
11:50 AM 68.0 °F 50.0 °F 52% 30.24 in - ENE 6.9 mph - N/A   Clear
12:50 PM 69.8 °F 50.0 °F 49% 30.21 in - NE 11.5 mph - N/A   Clear
1:50 PM 73.4 °F 42.8 °F 33% 30.18 in - North 15.0 mph - N/A   Clear
2:00 PM 73 °F 43 °F 23% 30.20 in 6 mi NNE 8.1 mph - -  
2:50 PM 73.4 °F 46.4 °F 38% 30.18 in - NNE 17.3 mph - N/A   Clear
3:50 PM 71.6 °F 46.4 °F 41% 30.18 in - North 16.1 mph - N/A   Clear
4:50 PM 69.8 °F 46.4 °F 43% 30.18 in - NNE 13.8 mph - N/A   Clear
5:50 PM 69.8 °F 46.4 °F 43% 30.18 in - North 10.4 mph - N/A   Clear
6:50 PM 68.0 °F 48.2 °F 49% 30.18 in - North 10.4 mph - N/A   Clear
7:50 PM 68.0 °F 48.2 °F 49% 30.21 in - North 8.1 mph - N/A   Clear
8:00 PM 65 °F 47 °F 41% 30.21 in - NNE 1.2 mph - -  
8:50 PM 64.4 °F 48.2 °F 56% 30.21 in - NNE 8.1 mph - N/A   Clear
9:50 PM 62.6 °F 50.0 °F 63% 30.21 in - NE 6.9 mph - N/A   Clear